QFA779 YMML-YSSY

Flight info

Callsign QFA779
Flight time 1h 0m
Altitude 33000
Route ML H129 DOSEL Y59 RIVET
Aircraft A21N/M-SDE2E3FGHIRWXY/LB1

Departure

Time 2026-05-08 00:22
Airport Melbourne Airport (YMML)

Arrival

Time 2026-05-08 01:22
Airport Sydney Kingsford Smith International Airport (YSSY)
Time Latitude Longitude Altitude Speed Heading
2026-05-07 23:57 -37.66798 144.84917 404 ft 0 kts 82°
2026-05-08 00:15 -37.66802 144.84888 402 ft 4 kts 82°
2026-05-08 00:15 -37.66805 144.84854 398 ft 4 kts 82°
2026-05-08 00:15 -37.66809 144.84820 403 ft 4 kts 82°
2026-05-08 00:15 -37.66810 144.84814 403 ft 0 kts 82°
2026-05-08 00:18 -37.66802 144.84828 400 ft 5 kts 39°
2026-05-08 00:18 -37.66758 144.84830 404 ft 8 kts 345°
2026-05-08 00:18 -37.66697 144.84809 406 ft 10 kts 348°
2026-05-08 00:19 -37.66630 144.84797 408 ft 10 kts
2026-05-08 00:19 -37.66547 144.84797 411 ft 13 kts 349°
2026-05-08 00:19 -37.66467 144.84776 414 ft 11 kts 358°
2026-05-08 00:19 -37.66392 144.84781 411 ft 12 kts
2026-05-08 00:20 -37.66336 144.84786 412 ft 9 kts
2026-05-08 00:20 -37.66271 144.84790 414 ft 10 kts
2026-05-08 00:20 -37.66226 144.84746 415 ft 6 kts 283°
2026-05-08 00:20 -37.66223 144.84728 418 ft 0 kts 275°
2026-05-08 00:21 -37.66204 144.84414 416 ft 82 kts 273°
2026-05-08 00:21 -37.66142 144.83330 479 ft 158 kts 272°
2026-05-08 00:22 -37.66059 144.82001 1782 ft 146 kts 268°
2026-05-08 00:22 -37.65991 144.80706 2930 ft 149 kts 264°
2026-05-08 00:22 -37.65938 144.79317 3336 ft 168 kts 265°
2026-05-08 00:22 -37.65818 144.77757 3760 ft 189 kts 268°
2026-05-08 00:23 -37.65711 144.76050 4288 ft 204 kts 265°
2026-05-08 00:23 -37.65639 144.74156 4715 ft 227 kts 266°
2026-05-08 00:23 -37.65498 144.72090 5300 ft 243 kts 268°
2026-05-08 00:23 -37.65335 144.69944 6095 ft 250 kts 270°
2026-05-08 00:24 -37.64807 144.67801 6912 ft 267 kts 294°
2026-05-08 00:24 -37.63434 144.66085 7573 ft 292 kts 321°
2026-05-08 00:24 -37.61559 144.64965 8280 ft 306 kts 335°
2026-05-08 00:24 -37.59541 144.64049 9028 ft 310 kts 334°
2026-05-08 00:25 -37.57497 144.63112 9786 ft 317 kts 338°
2026-05-08 00:25 -37.55263 144.62770 10331 ft 336 kts
2026-05-08 00:25 -37.52942 144.63581 10578 ft 358 kts 27°
2026-05-08 00:25 -37.50888 144.65412 10950 ft 366 kts 49°
2026-05-08 00:26 -37.49390 144.67965 11611 ft 363 kts 65°
2026-05-08 00:26 -37.48114 144.70725 12323 ft 367 kts 62°
2026-05-08 00:26 -37.46784 144.73478 13064 ft 369 kts 64°
2026-05-08 00:26 -37.45552 144.76324 13785 ft 372 kts 66°
2026-05-08 00:27 -37.44324 144.79216 14445 ft 377 kts 66°
2026-05-08 00:27 -37.43062 144.82081 15075 ft 381 kts 65°
2026-05-08 00:27 -37.41729 144.85035 15697 ft 386 kts 64°
2026-05-08 00:27 -37.40387 144.87972 16335 ft 389 kts 64°
2026-05-08 00:28 -37.39029 144.90929 16957 ft 393 kts 64°
2026-05-08 00:28 -37.37671 144.93882 17580 ft 397 kts 63°
2026-05-08 00:28 -37.36281 144.96902 18202 ft 400 kts 63°
2026-05-08 00:28 -37.34880 144.99944 18783 ft 404 kts 63°
2026-05-08 00:29 -37.33466 145.03008 19307 ft 408 kts 63°
2026-05-08 00:29 -37.32033 145.06112 19810 ft 412 kts 63°
2026-05-08 00:29 -37.30591 145.09239 20336 ft 416 kts 63°
2026-05-08 00:29 -37.29133 145.12392 20857 ft 419 kts 63°
2026-05-08 00:30 -37.27662 145.15562 21376 ft 422 kts 63°
2026-05-08 00:30 -37.26179 145.18758 21886 ft 424 kts 63°
2026-05-08 00:30 -37.24689 145.21967 22386 ft 428 kts 63°
2026-05-08 00:30 -37.23187 145.25204 22856 ft 431 kts 63°
2026-05-08 00:31 -37.21670 145.28464 23350 ft 435 kts 63°
2026-05-08 00:31 -37.20145 145.31731 23809 ft 438 kts 63°
2026-05-08 00:31 -37.18597 145.35065 24207 ft 441 kts 63°
2026-05-08 00:31 -37.17048 145.38396 24597 ft 444 kts 62°
2026-05-08 00:32 -37.15335 145.41636 24985 ft 449 kts 57°
2026-05-08 00:32 -37.13511 145.44829 25378 ft 452 kts 57°
2026-05-08 00:32 -37.11665 145.48034 25772 ft 454 kts 57°
2026-05-08 00:32 -37.09812 145.51252 26164 ft 457 kts 57°
2026-05-08 00:33 -37.07950 145.54491 26504 ft 462 kts 57°
2026-05-08 00:33 -37.06060 145.57779 26697 ft 469 kts 57°
2026-05-08 00:33 -37.04162 145.61077 26854 ft 477 kts 57°
2026-05-08 00:33 -37.02204 145.64473 27004 ft 485 kts 57°
2026-05-08 00:34 -37.00212 145.67924 27136 ft 493 kts 57°
2026-05-08 00:34 -36.98189 145.71432 27273 ft 501 kts 57°
2026-05-08 00:34 -36.96133 145.74989 27409 ft 509 kts 57°
2026-05-08 00:34 -36.94044 145.78597 27566 ft 516 kts 57°
2026-05-08 00:35 -36.91927 145.82250 27717 ft 522 kts 57°
2026-05-08 00:35 -36.89791 145.85933 28059 ft 523 kts 57°
2026-05-08 00:35 -36.87660 145.89603 28467 ft 521 kts 57°
2026-05-08 00:35 -36.85535 145.93263 28908 ft 519 kts 57°
2026-05-08 00:36 -36.83419 145.96906 29294 ft 519 kts 57°
2026-05-08 00:36 -36.81293 146.00553 29646 ft 519 kts 57°
2026-05-08 00:36 -36.79174 146.04191 30009 ft 518 kts 57°
2026-05-08 00:36 -36.77053 146.07825 30359 ft 519 kts 57°
2026-05-08 00:37 -36.74928 146.11457 30613 ft 519 kts 57°
2026-05-08 00:37 -36.72800 146.15093 30927 ft 518 kts 57°
2026-05-08 00:37 -36.70681 146.18711 31231 ft 517 kts 57°
2026-05-08 00:38 -36.66449 146.25930 31807 ft 515 kts 57°
2026-05-08 00:38 -36.64338 146.29527 32093 ft 515 kts 57°
2026-05-08 00:38 -36.62226 146.33124 32367 ft 514 kts 57°
2026-05-08 00:38 -36.60114 146.36709 32628 ft 513 kts 57°
2026-05-08 00:39 -36.57999 146.40295 32877 ft 513 kts 56°
2026-05-08 00:39 -36.55890 146.43868 33129 ft 512 kts 57°
2026-05-08 00:39 -36.53785 146.47438 33284 ft 512 kts 57°
2026-05-08 00:40 -36.49568 146.54575 33281 ft 512 kts 56°
2026-05-08 00:40 -36.45357 146.61678 33258 ft 510 kts 57°
2026-05-08 00:41 -36.41141 146.68773 33258 ft 510 kts 57°
2026-05-08 00:41 -36.36925 146.75862 33255 ft 510 kts 57°
2026-05-08 00:42 -36.32734 146.82881 33250 ft 509 kts 56°
2026-05-08 00:42 -36.28518 146.89937 33260 ft 510 kts 57°
2026-05-08 00:43 -36.24289 146.97003 33260 ft 510 kts 56°
2026-05-08 00:43 -36.20054 147.04060 33239 ft 510 kts 56°
2026-05-08 00:44 -36.15830 147.11103 33277 ft 510 kts 56°
2026-05-08 00:44 -36.11584 147.18156 33255 ft 512 kts 56°
2026-05-08 00:45 -36.07324 147.25208 33239 ft 511 kts 56°
2026-05-08 00:45 -36.03079 147.32223 33248 ft 509 kts 56°
2026-05-08 00:46 -35.98833 147.39230 33279 ft 510 kts 56°
2026-05-08 00:46 -35.94565 147.46255 33263 ft 512 kts 56°
2026-05-08 00:47 -35.90292 147.53276 33254 ft 512 kts 56°
2026-05-08 00:47 -35.86012 147.60294 33256 ft 512 kts 56°
2026-05-08 00:48 -35.81730 147.67304 33282 ft 513 kts 56°
2026-05-08 00:48 -35.77426 147.74330 33258 ft 513 kts 56°
2026-05-08 00:49 -35.73127 147.81334 33260 ft 513 kts 56°
2026-05-08 00:49 -35.68819 147.88338 33254 ft 513 kts 56°
2026-05-08 00:50 -35.64509 147.95327 33249 ft 512 kts 56°
2026-05-08 00:50 -35.60207 148.02295 33255 ft 511 kts 56°
2026-05-08 00:51 -35.55932 148.09207 33257 ft 511 kts 56°
2026-05-08 00:51 -35.51629 148.16157 33251 ft 511 kts 56°
2026-05-08 00:52 -35.47324 148.23087 33253 ft 511 kts 55°
2026-05-08 00:52 -35.43000 148.30024 33245 ft 512 kts 55°
2026-05-08 00:53 -35.38670 148.36965 33235 ft 512 kts 55°
2026-05-08 00:53 -35.34344 148.43890 33226 ft 511 kts 54°
2026-05-08 00:54 -35.30016 148.50799 33249 ft 514 kts 54°
2026-05-08 00:54 -35.25647 148.57754 33239 ft 516 kts 54°
2026-05-08 00:55 -35.21274 148.64708 33211 ft 516 kts 54°
2026-05-08 00:55 -35.16896 148.71655 33213 ft 516 kts 54°
2026-05-08 00:56 -35.12511 148.78600 33250 ft 517 kts 54°
2026-05-08 00:56 -35.08115 148.85544 33232 ft 517 kts 54°
2026-05-08 00:57 -35.03716 148.92482 33227 ft 517 kts 54°
2026-05-08 00:57 -34.99346 148.99366 33236 ft 517 kts 54°
2026-05-08 00:58 -34.94907 149.06344 33258 ft 520 kts 54°
2026-05-08 00:58 -34.90493 149.13263 33233 ft 521 kts 53°
2026-05-08 00:59 -34.86038 149.20243 33243 ft 522 kts 53°
2026-05-08 00:59 -34.81576 149.27208 33247 ft 522 kts 53°
2026-05-08 01:00 -34.77112 149.34171 33255 ft 522 kts 53°
2026-05-08 01:00 -34.74901 149.37654 32967 ft 519 kts 54°
2026-05-08 01:00 -34.72974 149.41360 32611 ft 519 kts 63°
2026-05-08 01:00 -34.71273 149.45220 31966 ft 516 kts 64°
2026-05-08 01:01 -34.69606 149.49081 31185 ft 516 kts 64°
2026-05-08 01:01 -34.67940 149.52939 30385 ft 516 kts 64°
2026-05-08 01:01 -34.66261 149.56793 29370 ft 517 kts 64°
2026-05-08 01:01 -34.64570 149.60661 28434 ft 519 kts 65°
2026-05-08 01:02 -34.62878 149.64528 27464 ft 520 kts 65°
2026-05-08 01:02 -34.61177 149.68412 26484 ft 521 kts 64°
2026-05-08 01:02 -34.59476 149.72288 25570 ft 521 kts 65°
2026-05-08 01:02 -34.57775 149.76157 24808 ft 518 kts 65°
2026-05-08 01:03 -34.56091 149.79977 24232 ft 510 kts 65°
2026-05-08 01:03 -34.54425 149.83756 23579 ft 504 kts 65°
2026-05-08 01:03 -34.52781 149.87487 22831 ft 500 kts 65°
2026-05-08 01:03 -34.51147 149.91189 22306 ft 499 kts 65°
2026-05-08 01:04 -34.49485 149.94967 21883 ft 518 kts 65°
2026-05-08 01:04 -34.47786 149.98809 21487 ft 513 kts 65°
2026-05-08 01:04 -34.46109 150.02588 20948 ft 505 kts 65°
2026-05-08 01:04 -34.44480 150.06258 20336 ft 498 kts 65°
2026-05-08 01:05 -34.42852 150.09929 19729 ft 492 kts 65°
2026-05-08 01:05 -34.41241 150.13553 19128 ft 486 kts 65°
2026-05-08 01:05 -34.39643 150.17145 18539 ft 482 kts 65°
2026-05-08 01:05 -34.38061 150.20700 17784 ft 477 kts 65°
2026-05-08 01:06 -34.36490 150.24227 17113 ft 476 kts 64°
2026-05-08 01:06 -34.34929 150.27729 16533 ft 471 kts 64°
2026-05-08 01:06 -34.33376 150.31210 15939 ft 467 kts 64°
2026-05-08 01:06 -34.31840 150.34647 15440 ft 462 kts 64°
2026-05-08 01:07 -34.30321 150.38044 14919 ft 457 kts 64°
2026-05-08 01:07 -34.28815 150.41407 14440 ft 452 kts 64°
2026-05-08 01:07 -34.27328 150.44731 14034 ft 446 kts 64°
2026-05-08 01:07 -34.25868 150.48005 13621 ft 440 kts 63°
2026-05-08 01:08 -34.24425 150.51239 13103 ft 436 kts 63°
2026-05-08 01:08 -34.22981 150.54460 12547 ft 433 kts 63°
2026-05-08 01:08 -34.21557 150.57632 12088 ft 425 kts 63°
2026-05-08 01:08 -34.20169 150.60726 11765 ft 411 kts 63°
2026-05-08 01:09 -34.18831 150.63705 11490 ft 396 kts 63°
2026-05-08 01:09 -34.17542 150.66574 11270 ft 382 kts 63°
2026-05-08 01:09 -34.16297 150.69342 11054 ft 368 kts 63°
2026-05-08 01:09 -34.15097 150.72007 10870 ft 355 kts 63°
2026-05-08 01:10 -34.13940 150.74575 10675 ft 342 kts 63°
2026-05-08 01:10 -34.12823 150.77049 10509 ft 330 kts 62°
2026-05-08 01:10 -34.12106 150.78639 10343 ft 324 kts 63°
2026-05-08 01:10 -34.10668 150.81827 9805 ft 321 kts 62°
2026-05-08 01:11 -34.09603 150.84193 9306 ft 320 kts 63°
2026-05-08 01:11 -34.08551 150.86533 8937 ft 315 kts 63°
2026-05-08 01:11 -34.07503 150.88862 8420 ft 316 kts 64°
2026-05-08 01:11 -34.06810 150.90400 8201 ft 313 kts 64°
2026-05-08 01:12 -34.05777 150.92692 7775 ft 311 kts 64°
2026-05-08 01:12 -34.04748 150.94974 7448 ft 306 kts 64°
2026-05-08 01:12 -34.03778 150.97230 7056 ft 301 kts 71°
2026-05-08 01:12 -34.03380 151.00409 6587 ft 283 kts 103°
2026-05-08 01:13 -34.03982 151.02585 6260 ft 268 kts 126°
2026-05-08 01:13 -34.04714 151.03779 6095 ft 257 kts 137°
2026-05-08 01:13 -34.05937 151.05283 5946 ft 245 kts 141°
2026-05-08 01:13 -34.07118 151.06684 5758 ft 231 kts 143°
2026-05-08 01:14 -34.08352 151.07779 5542 ft 210 kts 162°
2026-05-08 01:14 -34.09696 151.08226 5214 ft 196 kts 176°
2026-05-08 01:14 -34.11020 151.08497 4819 ft 191 kts 175°
2026-05-08 01:14 -34.12321 151.08800 4375 ft 191 kts 175°
2026-05-08 01:15 -34.13619 151.09122 3968 ft 190 kts 175°
2026-05-08 01:15 -34.14471 151.09338 3699 ft 189 kts 174°
2026-05-08 01:15 -34.16191 151.09779 3161 ft 192 kts 174°
2026-05-08 01:15 -34.17500 151.10117 2989 ft 195 kts 174°
2026-05-08 01:16 -34.18818 151.10563 2959 ft 202 kts 161°
2026-05-08 01:16 -34.19866 151.11795 2959 ft 220 kts 129°
2026-05-08 01:16 -34.20261 151.13608 2970 ft 236 kts 98°
2026-05-08 01:16 -34.19971 151.15620 2992 ft 243 kts 81°
2026-05-08 01:17 -34.19560 151.17512 2972 ft 226 kts 81°
2026-05-08 01:17 -34.19158 151.19328 2987 ft 223 kts 81°
2026-05-08 01:17 -34.18573 151.21084 2982 ft 233 kts 57°
2026-05-08 01:17 -34.17284 151.22243 2988 ft 232 kts 23°
2026-05-08 01:18 -34.15746 151.22697 2995 ft 225 kts
2026-05-08 01:18 -34.14188 151.22637 3000 ft 223 kts 346°
2026-05-08 01:18 -34.12683 151.22313 2986 ft 217 kts 339°
2026-05-08 01:18 -34.11226 151.21930 2954 ft 212 kts 340°
2026-05-08 01:19 -34.09816 151.21560 2770 ft 211 kts 340°
2026-05-08 01:19 -34.08359 151.21179 2499 ft 205 kts 340°
2026-05-08 01:19 -34.06971 151.20815 2226 ft 203 kts 340°
2026-05-08 01:19 -34.05646 151.20470 1940 ft 188 kts 340°
2026-05-08 01:20 -34.04397 151.20144 1670 ft 178 kts 340°
2026-05-08 01:20 -34.03217 151.19836 1442 ft 169 kts 339°
2026-05-08 01:20 -34.02090 151.19542 1212 ft 162 kts 339°
2026-05-08 01:20 -34.01016 151.19267 979 ft 155 kts 339°
2026-05-08 01:21 -33.99978 151.19027 812 ft 149 kts 340°
2026-05-08 01:21 -33.98959 151.18772 573 ft 150 kts 341°
2026-05-08 01:21 -33.97950 151.18502 385 ft 145 kts 339°
2026-05-08 01:21 -33.96969 151.18216 178 ft 145 kts 338°
2026-05-08 01:22 -33.95988 151.17956 38 ft 139 kts 339°
2026-05-08 01:22 -33.95194 151.17744 34 ft 89 kts 347°
2026-05-08 01:22 -33.94788 151.17636 34 ft 38 kts 346°
2026-05-08 01:22 -33.94543 151.17553 35 ft 34 kts 329°
2026-05-08 01:23 -33.94380 151.17415 36 ft 18 kts 316°
2026-05-08 01:23 -33.94333 151.17360 36 ft 0 kts 315°
2026-05-08 01:26 -33.94330 151.17356 36 ft 7 kts 316°
2026-05-08 01:26 -33.94274 151.17309 35 ft 11 kts 335°
2026-05-08 01:26 -33.94196 151.17282 34 ft 13 kts 348°
2026-05-08 01:26 -33.94092 151.17255 34 ft 17 kts 348°
2026-05-08 01:27 -33.93990 151.17241 34 ft 10 kts 24°
2026-05-08 01:27 -33.93973 151.17261 34 ft 0 kts 56°
2026-05-08 01:29 -33.93972 151.17263 34 ft 4 kts 56°
2026-05-08 01:29 -33.93924 151.17417 32 ft 24 kts 75°
2026-05-08 01:29 -33.93892 151.17553 34 ft 12 kts 69°
2026-05-08 01:29 -33.93811 151.17589 34 ft 14 kts 347°
2026-05-08 01:30 -33.93708 151.17560 34 ft 16 kts 347°
2026-05-08 01:30 -33.93593 151.17530 34 ft 18 kts 348°
2026-05-08 01:30 -33.93467 151.17505 35 ft 19 kts 358°
2026-05-08 01:30 -33.93334 151.17494 35 ft 19 kts 346°
2026-05-08 01:31 -33.93220 151.17459 35 ft 16 kts 347°
2026-05-08 01:31 -33.93118 151.17437 36 ft 13 kts
2026-05-08 01:31 -33.93059 151.17514 36 ft 12 kts 54°
2026-05-08 01:31 -33.93010 151.17591 35 ft 12 kts 83°
2026-05-08 01:32 -33.93030 151.17699 35 ft 14 kts 116°
2026-05-08 01:32 -33.93061 151.17800 35 ft 11 kts 102°
2026-05-08 01:32 -33.93081 151.17867 35 ft 8 kts 150°
2026-05-08 01:32 -33.93121 151.17862 35 ft 6 kts 189°
2026-05-08 01:33 -33.93144 151.17858 35 ft 0 kts 191°